sat.trackr.live / text

‹ back to catalog

STARLINK-36809

NORAD 67929 · 2026-036AB

PAYLOAD ACTIVE UNKNOWN

§ Identity

Operator
Country
US
Launch date
2026-02-22
Launch site
AFETR
Launch vehicle
Mass (kg)
RCS (m²)

Purposes: comms

External: N2YO · Heavens-Above · Gunter

§ Orbital elements

Epoch: 2026-09-19T14:58:47.364384Z

Period
94.27 min
Inclination
42.9986°
Eccentricity
0.0000433
Mean motion
15.27590627 rev/d
Perigee alt
482.7 km
Apogee alt
483.3 km
Semi-major
6,861.2 km
B*
4.2906e-4
RAAN
229.8663°
Arg perigee
306.4795°
Mean anomaly
53.6017°
Rev number
3,338

§ Raw data

STARLINK-368091 67929U 26036AB  26262.62415931  .00011567  00000+0  42906-3 0  99922 67929  42.9986 229.8663 0000433 306.4795  53.6017 15.27590627 33386

JSON: /api/v1/satellites/67929 · /tle

For live sub-satellite position, see the globe view (requires WebGL).

§ Visibility from observer

Set your observer location to see the next 7 days of passes ≥ 10°. The values pass through the URL so the page stays shareable.

No JS? Fill the form by hand. The geolocation button needs JavaScript.